User: anonymous   Login
Location: Assche-ter-Heiden
(50.9174°N, 4.1574°E)
Time: 14:59:50
(UTC+00:00)
Language:

STARLINK-40 - Orbit

View from above orbital plane
View from above orbital plane
View from above satellite
View from above satellite

Ground track
Ground track

The orbit data is extracted from the following two-line orbital elements,

1 44258U 19029Z   20095.58334491  .00005648  00000-0  34080-3 0  9998
2 44258  53.0001 185.5843 0001113 107.4927 126.0511 15.12131508 47907
Epoch (UTC): 04 April 2020 14:00:01
Eccentricity: 0.0001113
inclination: 53.0001°
perigee height: 529 km
apogee height: 530 km
right ascension of ascending node: 185.5843°
argument of perigee: 107.4927°
revolutions per day: 15.12131508
mean anomaly at epoch: 126.0511°
orbit number at epoch: 4790

The dashed part of the orbit path shows where the satellite is in the earth's shadow,  

DLR